Location: Famechon
(49.7599°N, 2.0615°E)
Time: 13:27:37
(UTC+00:00)

Meteor PRIRODA - Pass Details

Date: 03 February 2023
Orbit: 475 x 489 km, 97.6° (Epoch: 21 March)

Event Time Altitude Azimuth Distance (km) Brightness Sun altitude
Rises 17:37:28 0° 172° (S) 2,514 7.3 -8.1°
Reaches altitude 10° 17:39:32 10° 175° (S) 1,641 6.4 -8.4°
Maximum altitude 17:43:02 66° 258° (WSW) 524 4.0 -8.9°
Drops below altitude 10° 17:46:34 10° 341° (NNW) 1,658 6.3 -9.5°
Sets 17:48:40 0° 345° (NNW) 2,544 7.2 -9.8°
